Lid_Strength_Index
9 10 10 10 10 10 10 11 12 16 14 12 10 7 7 7 6 6 7 4 4 4 4 3 3 3 3 3 2 2 2 1 2 2 4 4 4 4
9 9 10 9 9 9 11 10 10 11 13 11 10 9 8 7 6 7 7 5 5 4 4 3 3 3 3 3 3 2 2 2 1 2 2 3 3 4
9 9 9 9 10 10 10 10 11 10 12 11 10 9 10 10 8 8 7 8 7 5 4 4 4 3 3 3 3 3 3 2 2 2 2 2 2 3
10 9 9 8 10 10 11 11 11 11 11 12 11 11 10 10 10 10 8 6 7 5 4 4 4 4 3 3 3 3 3 2 2 3 2 2 2 2
9 9 9 10 11 11 11 11 11 9 10 11 11 10 10 10 10 9 9 9 6 5 5 5 4 4 4 4 3 3 2 2 2 2 2 3 3 2
9 10 10 10 10 11 11 11 10 11 10 11 11 10 11 10 10 11 10 8 9 7 6 6 5 5 5 5 4 4 2 2 2 2 3 3 3 2
10 9 9 8 6 9 10 10 10 11 11 11 11 11 11 11 11 10 10 10 9 9 9 9 9 8 8 6 5 5 3 3 3 3 2 3 3 2
9 9 9 7 6 6 6 6 8 10 11 12 11 12 12 12 11 11 11 11 12 9 10 10 9 9 9 8 5 4 4 4 3 3 3 3 3 3
9 9 9 7 8 9 8 8 8 8 8 11 12 12 12 11 11 11 10 11 11 9 10 11 10 10 9 7 5 5 4 3 3 3 3 4 3 3
9 9 9 9 9 9 9 9 9 9 9 9 11 11 10 9 9 8 8 8 9 9 9 11 10 10 8 7 4 3 2 2 2 3 4 4 3 3
8 8 8 9 8 6 8 9 10 10 8 7 7 7 7 6 6 7 9 10 11 10 8 9 10 9 8 7 6 2 1 1 1 3 3 4 3 3
8 8 7 8 6 6 9 10 11 10 10 9 9 9 8 8 6 8 8 10 10 11 9 8 9 9 10 7 6 6 4 2 2 2 2 3 3 3
8 9 9 6 6 6 5 9 10 9 9 9 9 9 9 9 8 8 8 9 10 10 7 6 7 8 8 8 6 6 5 2 3 3 2 3 3 2
8 8 9 6 5 5 6 6 5 7 11 12 12 11 11 10 9 8 8 8 8 8 7 6 6 8 9 9 8 6 4 3 3 3 3 3 4 2
8 8 7 6 5 6 5 5 7 9 12 16 12 12 11 10 9 8 8 8 8 7 6 4 4 6 6 7 8 6 5 5 4 3 4 4 4 5
8 7 9 8 10 10 10 8 8 9 10 12 13 12 11 11 11 9 10 9 9 9 6 6 5 5 6 6 6 7 6 7 5 4 4 4 4 5
9 11 12 12 10 10 10 9 10 10 12 14 14 13 12 11 11 10 10 10 13 11 10 7 5 4 6 6 9 7 7 7 6 5 4 5 5 4
9 11 11 11 11 10 12 11 12 12 11 12 14 13 13 14 12 11 10 11 11 11 10 9 9 9 7 7 5 7 8 7 6 5 5 6 6 5
8 8 9 11 11 11 11 11 11 12 12 12 13 15 15 13 13 12 12 11 11 11 10 9 9 11 11 15 8 4 6 8 8 7 7 7 6 6
7 9 10 11 11 10 10 10 10 12 13 13 14 18 20 16 15 14 13 16 12 11 11 10 10 10 10 10 11 10 4 7 10 9 9 7 6 5
7 8 9 10 10 9 9 11 12 12 13 15 15 17 20 16 16 15 15 15 15 11 12 12 10 8 7 7 12 11 9 5 6 7 6 8 9 10
7 7 7 8 8 8 9 9 11 11 11 14 16 17 20 18 18 17 18 15 13 14 12 11 10 8 7 7 9 12 8 12 8 6 5 7 9 11
5 6 6 7 7 7 7 7 8 8 9 10 12 14 19 18 16 18 18 13 13 14 13 12 11 9 9 8 8 8 9 10 11 11 12 6 5 5